Regional Weather Roundup
Issued by NWS Boston, MA

Current Version | Previous Version | Text Only | Print | Product List | Glossary Off
Versions: 1 2 3 4 5 6 7 8 9 10 11 12 13 14 15 16 17 18 19 20 21 22 23 24 25 26 27 28

000
ASUS41 KBOX 241710
RWRBOX

REGIONAL WEATHER ROUNDUP
NATIONAL WEATHER SERVICE TAUNTON MA
1200 PM EST SAT FEB 24 2018

NOTE:  "FAIR" INDICATES FEW OR NO CLOUDS BELOW 12,000 FEET WITH NO
SIGNIFICANT WEATHER AND/OR OBSTRUCTIONS TO VISIBILITY.

MAZALL-241800-
EASTERN MASSACHUSETTS

CITY           SKY/WX    TMP DP  RH WIND       PRES   REMARKS
BOSTON         PTSUNNY   54  36  50 W10       30.09R
BEVERLY        FAIR      54  36  50 NW8G21    30.07S
LAWRENCE       FAIR      55  35  47 W12       30.09S
BEDFORD        FAIR      53  36  52 W12       30.07F
BLUE HILL        N/A    N/A N/A N/A W10       30.07S
NORWOOD        FAIR      58  36  43 NW12G21   30.09S
MARSHFIELD     FAIR      57  37  47 VRB5G14   30.08S
PLYMOUTH       FAIR      58  38  47 W7        30.09S
TAUNTON        FAIR      58  37  45 W9        30.08F
NEW BEDFORD    FAIR      56  38  50 W12       30.08F
$$

MAZALL-241800-
CAPE COD AND THE ISLANDS

CITY           SKY/WX    TMP DP  RH WIND       PRES   REMARKS
FALMOUTH       FAIR      55  39  54 NW9       30.10
HYANNIS        FAIR      56  42  59 VRB3      30.08S
CHATHAM        FAIR      55  40  56 NW7       30.10F
PROVINCETOWN   FAIR      48  39  71 N8        30.10S
NANTUCKET      FAIR      45  43  93 W9        30.10F
MARTHAS VNYRD  FAIR      50  43  77 W7        30.09F
$$

MAZALL-241800-
CENTRAL AND WESTERN MASSACHUSETTS

CITY           SKY/WX    TMP DP  RH WIND       PRES   REMARKS
WORCESTER      FAIR      49  32  52 NW14G22   30.10R
FITCHBURG      FAIR      55  36  48 NW12      30.10F
ORANGE         PTSUNNY   48  34  58 W9        30.11F
SPRINGFIELD    PTSUNNY   50  32  50 W16       30.13R
WESTFIELD      FAIR      49  34  56 NW12      30.15R
NORTH ADAMS    PTSUNNY   44  33  65 W15       30.15F
PITTSFIELD     CLOUDY    41  30  65 NW14G20   30.15R
$$

RIZALL-241800-
RHODE ISLAND

CITY           SKY/WX    TMP DP  RH WIND       PRES   REMARKS
PROVIDENCE     PTSUNNY   58  38  47 NW9       30.11S
NEWPORT        FAIR      54  40  59 NW7       30.10S
BLOCK ISLAND   PTSUNNY   48  41  76 W10       30.12F
SMITHFIELD     FAIR      55  35  47 MISG      30.10S
WESTERLY       FAIR      58  42  55 NW8       30.11F
$$

CTZALL-241800-
CONNECTICUT

CITY           SKY/WX    TMP DP  RH WIND       PRES   REMARKS
BRADLEY INTL   PTSUNNY   51  36  56 NW14      30.14S
HARTFORD       PTSUNNY   54  37  52 NW10      30.14S
BRIDGEPORT     CLOUDY    47  41  80 SW6       30.13F
DANBURY        PTSUNNY   50  38  63 NW10      30.16S
GROTON         PTSUNNY   57  39  51 N12       30.10F
NEW HAVEN      PTSUNNY   50  41  71 VRB7      30.12F
CHESTER        FAIR      57  37  47 N5G13     30.12F
MERIDEN        PTSUNNY   54  37  52 N7        30.12F
WILLIMANTIC    FAIR      54  36  50 NW12G18   30.13S
OXFORD         PTSUNNY   50  39  66 NW7       30.13F
$$

MEZ002-015-021-024-NHZ003-005-008-011-012-014-VTZ005-008-241800-
NORTHERN NEW ENGLAND

CITY           SKY/WX    TMP DP  RH WIND       PRES   REMARKS
PORTLAND ME    FAIR      51  32  48 NW16      30.06R
BANGOR ME      PTSUNNY   46  27  47 NW14G21   30.00S
CONCORD NH     CLOUDY    49  34  56 NW8       30.09S
MANCHESTER NH  CLOUDY    51  32  48 W13       30.07S
NASHUA NH      FAIR      51  34  52 W14G21    30.09F
PORTSMOUTH NH  PTSUNNY   51  33  50 W13G23    30.07R
JAFFREY NH     FAIR      47  33  58 W9G17     30.09F
KEENE NH       FAIR      49  34  56 W7        30.11F
BURLINGTON VT  CLOUDY    40  30  67 N13       30.18R
MT. WASHINGTON FOG       16  16 100 W68G75      N/A  VSB 0   WCI -11
$$

NYZ052-076-241800-
EASTERN NEW YORK

CITY           SKY/WX    TMP DP  RH WIND       PRES   REMARKS
ALBANY         CLOUDY    44  30  57 W10       30.21R
NEW YORK CITY  CLOUDY    53  38  56 NW14      30.17R
$$

ANZALL-241800-
MARINE OBSERVATIONS

STATION/POSITION TIME  TEMP    WIND        PRES    VSBY  WAVE
                       AIR SEA DIR/SP/G                  HT/PER
                 (UTC) (F)     (DEG/KT/KT) (MB)    (MI)  (FT/S)
BOSTON BUOY      1650   44 40  290/  4/  6 1018.3R         1/ 6
BUZZARDS BAY     1600   38     250/ 13/ 13 1020.0R
NANTUCKET SOUND  1650   40 40  230/ 10/ 12 1019.3F         1/ 3
MASS BAY-STELLWA 1604   45 41              1017.7S         1/ 5
ISLE OF SHOALS   1700   47     300/ 21/ 24 1017.7S
S OF BLOCK IS    1643      41                N/A           4/ 6
$$

......................KEY.........................
  SKY/WX - SKY CONDITION/PRESENT WEATHER
  TMP    - TEMPERATURE IN FAHRENHEIT
  DWPT   - DEWPOINT IN FAHRENHEIT
  RH     - RELATIVE HUMIDITY IN PERCENT
  WIND   - DIRECTION AND SPEED IN MPH
  PRES   - MEAN SEA LEVEL PRESSURE IN INCHES OF HG
  WCI    - WIND CHILL INDEX
  VSB    - VISIBILITY IN MILES
  HX     - HEAT INDEX
  TC     - TEMPERATURE IN CELSIUS
  VRB    - VARIABLE WIND DIRECTION
  N/A    - NOT AVAILABLE




USA.gov is the U.S. government's official web portal to all federal, state and local government web resources and services.